N7DTY Weather Reports


time (UTC)temp
F
wind
direction
speed
knots
gust
knots
rain 1hr
in
rain 24hr
in
rain mn
in
humidity
%
barometer
mb
20260507170028 57 194 0.0 3.5 0.00 0.00 0.00 75 1020.4
20260507164526 57 163 0.0 3.5 0.00 0.00 0.00 75 1020.3
20260507163022 56 186 0.9 4.3 0.00 0.00 0.00 77 1020.4
20260507161521 55 199 0.9 2.6 0.00 0.00 0.00 76 1020.4
20260507160020 56 196 0.9 4.3 0.00 0.00 0.00 75 1020.4
20260507154515 55 182 0.9 7.0 0.00 0.00 0.00 78 1020.6
20260507153012 54 165 1.7 5.2 0.00 0.00 0.00 78 1020.7
20260507151511 53 209 0.0 1.7 0.00 0.00 0.00 80 1020.6
20260507150019 53 171 0.9 5.2 0.00 0.00 0.00 83 1020.6
20260507144513 53 166 0.9 4.3 0.00 0.00 0.00 84 1020.7
20260507143001 53 150 1.7 4.3 0.00 0.00 0.00 84 1020.5
20260507141604 53 179 0.0 2.6 0.00 0.00 0.00 84 1020.5
20260507140101 53 161 0.0 2.6 0.00 0.00 0.00 84 1020.5
20260507134604 52 181 0.0 1.7 0.00 0.00 0.00 83 1020.5
20260507133123 52 181 0.0 1.7 0.00 0.00 0.00 83 1020.4
20260507131555 52 181 0.0 1.7 0.00 0.00 0.00 82 1020.3
20260507130105 52 181 0.0 0.0 0.00 0.00 0.00 81 1020.3
20260507124550 52 181 0.0 2.6 0.00 0.00 0.00 81 1020.3
20260507123053 52 178 0.0 0.9 0.00 0.00 0.00 81 1020.3
20260507121604 52 178 0.0 3.5 0.00 0.00 0.00 79 1020.5
20260507120057 52 173 0.9 4.3 0.00 0.00 0.00 80 1020.5
20260507114632 53 150 0.9 3.5 0.00 0.00 0.00 80 1020.6
20260507113047 52 182 0.9 4.3 0.00 0.00 0.00 80 1020.6
20260507111548 52 154 1.7 4.3 0.00 0.00 0.00 81 1020.7
20260507110045 53 153 0.9 6.1 0.00 0.00 0.00 80 1020.6
20260507104544 53 192 1.7 7.8 0.00 0.00 0.00 80 1020.5
20260507103044 53 165 0.9 7.0 0.00 0.00 0.00 80 1020.5
20260507101546 53 169 0.9 3.5 0.00 0.00 0.00 80 1020.6
20260507100042 53 135 0.9 4.3 0.00 0.00 0.00 80 1020.5
20260507094540 53 155 2.6 7.0 0.00 0.00 0.00 80 1020.5
20260507093041 53 219 0.9 7.8 0.00 0.00 0.00 80 1020.6
20260507091544 53 157 1.7 7.8 0.00 0.00 0.00 81 1020.5
20260507090038 53 202 3.5 7.8 0.00 0.00 0.00 80 1020.6
20260507084536 53 160 2.6 6.1 0.00 0.00 0.00 80 1020.6
20260507083034 53 183 0.9 7.0 0.00 0.00 0.00 81 1020.6
20260507081531 53 152 1.7 7.0 0.00 0.00 0.00 81 1020.6
20260507080030 53 169 2.6 8.7 0.00 0.00 0.00 80 1020.5
20260507074528 53 186 3.5 10.4 0.00 0.00 0.00 80 1020.4
20260507073027 54 202 1.7 8.7 0.00 0.00 0.00 80 1020.3
20260507071524 54 188 2.6 9.6 0.00 0.00 0.00 79 1020.3
20260507070028 54 175 3.5 11.3 0.00 0.00 0.00 79 1020.1
20260507064524 54 146 1.7 12.2 0.00 0.00 0.00 81 1020.0
20260507063020 54 144 2.6 7.8 0.00 0.00 0.00 81 1019.9
20260507061521 54 130 3.5 9.6 0.00 0.00 0.00 81 1019.9
20260507060019 54 165 2.6 7.0 0.00 0.00 0.00 81 1019.9
20260507054524 54 183 1.7 7.0 0.00 0.00 0.00 82 1019.8
20260507053018 54 179 2.6 9.6 0.00 0.00 0.00 82 1019.8
20260507051518 54 166 3.5 10.4 0.00 0.00 0.00 82 1019.8
20260507050022 55 155 1.7 6.1 0.00 0.00 0.00 81 1020.0
20260507044517 55 184 1.7 7.0 0.00 0.00 0.00 80 1020.0
20260507043022 55 183 3.5 7.8 0.00 0.00 0.00 80 1019.9
20260507041517 55 179 0.9 7.0 0.00 0.00 0.00 81 1019.8
20260507040015 55 157 2.6 7.8 0.00 0.00 0.00 81 1019.9
20260507034515 55 163 1.7 7.0 0.00 0.00 0.00 81 1019.8
20260507033014 55 157 3.5 8.7 0.00 0.00 0.00 81 1019.8
20260507031514 54 197 0.9 7.0 0.00 0.00 0.00 83 1019.6
20260507030013 54 165 2.6 7.8 0.00 0.00 0.00 83 1019.6
20260507024514 54 187 2.6 6.1 0.00 0.00 0.00 82 1019.7
20260507023012 55 157 2.6 7.0 0.00 0.00 0.00 81 1019.6
20260507021512 55 213 2.6 7.0 0.00 0.00 0.00 81 1019.6
20260507020011 55 198 3.5 7.0 0.00 0.00 0.00 82 1019.6
20260507014513 55 178 1.7 5.2 0.00 0.00 0.00 82 1019.7
20260507013020 56 184 2.6 7.0 0.00 0.00 0.00 79 1019.7
20260507011513 56 156 3.5 8.7 0.00 0.00 0.00 78 1019.6
20260507010013 56 165 1.7 7.0 0.00 0.00 0.00 79 1019.6
20260507004509 56 167 2.6 7.8 0.00 0.00 0.00 79 1019.8
20260507003008 56 165 2.6 8.7 0.00 0.00 0.00 79 1019.8
20260507001510 56 186 1.7 8.7 0.00 0.00 0.00 80 1019.7
20260507000007 56 219 1.7 7.8 0.00 0.00 0.00 79 1019.6
20260506234506 56 180 0.9 6.1 0.00 0.00 0.00 80 1019.6
20260506233008 56 173 2.6 7.8 0.00 0.00 0.00 79 1019.6
20260506231506 56 151 1.7 7.0 0.00 0.00 0.00 78 1019.7
20260506230008 56 173 2.6 7.8 0.00 0.00 0.00 79 1019.7
20260506224505 57 179 1.7 8.7 0.00 0.00 0.00 78 1019.9
20260506223004 57 172 4.3 10.4 0.00 0.00 0.00 76 1020.0
20260506221502 57 184 2.6 6.1 0.00 0.00 0.00 77 1019.8
20260506220100 56 144 3.5 10.4 0.00 0.00 0.00 79 1019.9
20260506214557 55 181 2.6 7.8 0.00 0.00 0.00 81 1020.0
20260506213112 55 155 3.5 9.6 0.00 0.00 0.00 80 1019.9
20260506211556 55 166 2.6 6.1 0.00 0.00 0.00 81 1020.1
20260506210054 55 191 2.6 7.8 0.00 0.00 0.00 82 1020.1
20260506204552 55 229 3.5 7.0 0.00 0.00 0.00 81 1019.9
20260506203052 55 171 2.6 6.1 0.00 0.00 0.00 83 1019.8
20260506201547 54 192 1.7 5.2 0.00 0.00 0.00 85 1020.0
20260506200047 53 161 1.7 5.2 0.00 0.00 0.00 84 1019.9
20260506194548 54 180 0.9 6.1 0.00 0.00 0.00 85 1020.0
20260506193044 54 127 1.7 8.7 0.00 0.00 0.00 84 1019.9
20260506191543 54 173 3.5 6.1 0.00 0.00 0.00 84 1019.7
20260506190040 54 146 1.7 7.0 0.00 0.00 0.00 85 1019.6
20260506184549 53 176 1.7 6.1 0.00 0.00 0.00 87 1019.6
20260506183052 53 182 1.7 7.8 0.00 0.00 0.00 87 1019.7
20260506181607 53 196 1.7 7.8 0.00 0.00 0.00 86 1019.4
20260506180037 53 188 1.7 4.3 0.00 0.00 0.00 87 1019.5
20260506174536 52 194 3.5 7.8 0.00 0.00 0.00 87 1019.5
20260506173053 52 175 2.6 5.2 0.00 0.00 0.00 87 1019.3
20260506171535 52 193 2.6 5.2 0.00 0.00 0.00 87 1019.3